Time,TemperatureF,DewpointF,PressureIn,WindDirection,WindDirectionDegrees,WindSpeedMPH,WindSpeedGustMPH,Humidity,HourlyPrecipIn,Conditions,Clouds,dailyrainin,SolarRadiationWatts/m^2,SoftwareType,DateUTC
2013-03-02 00:02:00,54.9,49.8,30.17,NE,35,0.0,2.0,83,0.00,,,0.00,0.0,meteohub,2013-03-02 08:02:00,
2013-03-02 00:07:00,54.7,49.6,30.16,NE,35,0.0,2.0,83,0.00,,,0.00,0.0,meteohub,2013-03-02 08:07:00,
2013-03-02 00:12:00,54.7,49.6,30.16,NE,34,0.0,0.0,83,0.00,,,0.00,0.0,meteohub,2013-03-02 08:12:00,
2013-03-02 00:17:00,54.7,49.6,30.16,NE,35,0.0,0.0,83,0.00,,,0.00,0.0,meteohub,2013-03-02 08:17:00,
2013-03-02 00:22:00,54.7,49.6,30.16,NE,35,0.0,0.0,83,0.00,,,0.00,0.0,meteohub,2013-03-02 08:22:00,
2013-03-02 00:27:00,54.9,49.5,30.16,NE,35,0.0,0.0,82,0.00,,,0.00,0.0,meteohub,2013-03-02 08:27:00,
2013-03-02 00:32:00,54.9,49.5,30.16,NE,35,0.0,0.0,82,0.00,,,0.00,0.0,meteohub,2013-03-02 08:32:00,
2013-03-02 00:37:00,54.7,49.3,30.17,NE,35,0.0,1.0,82,0.00,,,0.00,0.0,meteohub,2013-03-02 08:37:00,
2013-03-02 00:42:00,54.3,49.3,30.16,East,91,1.0,1.0,83,0.00,,,0.00,0.0,meteohub,2013-03-02 08:42:00,
2013-03-02 00:47:00,54.3,49.3,30.16,East,87,0.0,2.0,83,0.00,,,0.00,0.0,meteohub,2013-03-02 08:47:00,
2013-03-02 00:52:00,54.0,48.9,30.16,East,99,1.0,2.0,83,0.00,,,0.00,0.0,meteohub,2013-03-02 08:52:00,
2013-03-02 00:57:00,53.8,49.1,30.16,ESE,115,1.0,3.0,84,0.00,,,0.00,0.0,meteohub,2013-03-02 08:57:00,
2013-03-02 01:02:00,53.4,49.1,30.16,East,83,0.0,4.0,85,0.00,,,0.00,0.0,meteohub,2013-03-02 09:02:00,
2013-03-02 01:07:00,53.8,49.1,30.16,ENE,67,1.0,4.0,84,0.00,,,0.00,0.0,meteohub,2013-03-02 09:07:00,
2013-03-02 01:12:00,53.4,49.1,30.16,East,90,1.0,4.0,85,0.00,,,0.00,0.0,meteohub,2013-03-02 09:12:00,
2013-03-02 01:17:00,53.2,48.9,30.16,ESE,107,1.0,4.0,85,0.00,,,0.00,0.0,meteohub,2013-03-02 09:17:00,
2013-03-02 01:22:00,53.2,48.9,30.16,ENE,62,1.0,4.0,85,0.00,,,0.00,0.0,meteohub,2013-03-02 09:22:00,
2013-03-02 01:27:00,53.2,48.9,30.16,ENE,67,1.0,4.0,85,0.00,,,0.00,0.0,meteohub,2013-03-02 09:27:00,
2013-03-02 01:32:00,53.2,49.1,30.16,ENE,73,0.0,4.0,86,0.00,,,0.00,0.0,meteohub,2013-03-02 09:32:00,
2013-03-02 01:37:00,53.2,48.9,30.16,ENE,77,0.0,4.0,85,0.00,,,0.00,0.0,meteohub,2013-03-02 09:37:00,
2013-03-02 01:42:00,53.4,49.1,30.16,NE,53,1.0,2.0,85,0.00,,,0.00,0.0,meteohub,2013-03-02 09:42:00,
2013-03-02 01:47:00,53.8,49.5,30.15,NE,55,1.0,3.0,85,0.00,,,0.00,0.0,meteohub,2013-03-02 09:47:00,
2013-03-02 01:52:00,54.1,49.5,30.15,ENE,59,5.0,5.0,84,0.00,,,0.00,0.0,meteohub,2013-03-02 09:52:00,
2013-03-02 01:57:00,54.5,49.5,30.15,ENE,60,5.0,5.0,83,0.00,,,0.00,0.0,meteohub,2013-03-02 09:57:00,
2013-03-02 02:02:00,54.9,49.5,30.14,ENE,65,3.0,6.0,82,0.00,,,0.00,0.0,meteohub,2013-03-02 10:02:00,
2013-03-02 02:07:00,55.2,49.5,30.14,NE,56,3.0,7.0,81,0.00,,,0.00,0.0,meteohub,2013-03-02 10:07:00,
2013-03-02 02:12:00,55.2,49.5,30.14,ENE,61,4.0,7.0,81,0.00,,,0.00,0.0,meteohub,2013-03-02 10:12:00,
2013-03-02 02:17:00,55.2,49.5,30.14,ENE,71,4.0,5.0,81,0.00,,,0.00,0.0,meteohub,2013-03-02 10:17:00,
2013-03-02 02:23:00,55.0,49.3,30.14,ENE,61,4.0,6.0,81,0.00,,,0.00,0.0,meteohub,2013-03-02 10:23:00,
2013-03-02 02:28:00,55.0,49.3,30.13,ENE,67,3.0,6.0,81,0.00,,,0.00,0.0,meteohub,2013-03-02 10:28:00,
2013-03-02 02:33:00,55.0,49.3,30.13,ENE,63,5.0,6.0,81,0.00,,,0.00,0.0,meteohub,2013-03-02 10:33:00,
2013-03-02 02:38:00,54.9,49.1,30.13,NE,42,1.0,6.0,81,0.00,,,0.00,0.0,meteohub,2013-03-02 10:38:00,
2013-03-02 02:43:00,54.9,49.1,30.13,ENE,57,3.0,6.0,81,0.00,,,0.00,0.0,meteohub,2013-03-02 10:43:00,
2013-03-02 02:48:00,54.9,49.1,30.13,NE,56,5.0,6.0,81,0.00,,,0.00,0.0,meteohub,2013-03-02 10:48:00,
2013-03-02 02:53:00,54.7,49.3,30.13,NE,49,5.0,6.0,82,0.00,,,0.00,0.0,meteohub,2013-03-02 10:53:00,
2013-03-02 02:58:00,54.7,49.3,30.13,NE,54,4.0,6.0,82,0.00,,,0.00,0.0,meteohub,2013-03-02 10:58:00,
2013-03-02 03:03:00,54.7,49.3,30.13,ENE,61,4.0,7.0,82,0.00,,,0.00,0.0,meteohub,2013-03-02 11:03:00,
2013-03-02 03:08:00,54.7,49.3,30.13,ENE,60,3.0,7.0,82,0.00,,,0.00,0.0,meteohub,2013-03-02 11:08:00,
2013-03-02 03:13:00,54.5,49.1,30.12,NE,51,4.0,7.0,82,0.00,,,0.00,0.0,meteohub,2013-03-02 11:13:00,
2013-03-02 03:18:00,54.5,49.1,30.12,NE,55,3.0,6.0,82,0.00,,,0.00,0.0,meteohub,2013-03-02 11:18:00,
2013-03-02 03:23:00,54.3,49.3,30.12,NE,53,2.0,6.0,83,0.00,,,0.00,0.0,meteohub,2013-03-02 11:23:00,
2013-03-02 03:28:00,54.3,49.3,30.12,ENE,70,3.0,5.0,83,0.00,,,0.00,0.0,meteohub,2013-03-02 11:28:00,
2013-03-02 03:33:00,54.3,49.3,30.12,ENE,69,3.0,5.0,83,0.00,,,0.00,0.0,meteohub,2013-03-02 11:33:00,
2013-03-02 03:38:00,54.1,49.1,30.12,ENE,71,3.0,5.0,83,0.00,,,0.00,0.0,meteohub,2013-03-02 11:38:00,
2013-03-02 03:43:00,54.1,49.1,30.12,NE,42,6.0,6.0,83,0.00,,,0.00,0.0,meteohub,2013-03-02 11:43:00,
2013-03-02 03:48:00,54.1,49.1,30.12,NE,44,4.0,6.0,83,0.00,,,0.00,0.0,meteohub,2013-03-02 11:48:00,
2013-03-02 03:53:00,54.1,49.1,30.12,NE,49,4.0,7.0,83,0.00,,,0.00,0.0,meteohub,2013-03-02 11:53:00,
2013-03-02 03:58:00,54.1,49.1,30.11,ENE,60,6.0,7.0,83,0.00,,,0.00,0.0,meteohub,2013-03-02 11:58:00,
2013-03-02 04:03:00,54.0,48.9,30.12,ENE,59,4.0,7.0,83,0.00,,,0.00,0.0,meteohub,2013-03-02 12:03:00,
2013-03-02 04:08:00,54.0,49.3,30.12,ENE,58,5.0,6.0,84,0.00,,,0.00,0.0,meteohub,2013-03-02 12:08:00,
2013-03-02 04:13:00,53.8,49.1,30.12,ENE,71,0.0,9.0,84,0.00,,,0.00,0.0,meteohub,2013-03-02 12:13:00,
2013-03-02 04:18:00,53.8,49.1,30.12,NE,55,2.0,9.0,84,0.00,,,0.00,0.0,meteohub,2013-03-02 12:18:00,
2013-03-02 04:23:00,53.4,48.7,30.12,NE,55,2.0,9.0,84,0.00,,,0.00,0.0,meteohub,2013-03-02 12:23:00,
2013-03-02 04:28:00,53.4,48.7,30.11,ENE,61,3.0,5.0,84,0.00,,,0.00,0.0,meteohub,2013-03-02 12:28:00,
2013-03-02 04:33:00,53.4,48.7,30.11,ENE,68,3.0,5.0,84,0.00,,,0.00,0.0,meteohub,2013-03-02 12:33:00,
2013-03-02 04:38:00,53.2,48.6,30.11,ENE,63,0.0,5.0,84,0.00,,,0.00,0.0,meteohub,2013-03-02 12:38:00,
2013-03-02 04:43:00,52.7,48.6,30.11,ENE,67,2.0,5.0,86,0.00,,,0.00,0.0,meteohub,2013-03-02 12:43:00,
2013-03-02 04:48:00,52.5,48.4,30.11,ENE,57,2.0,5.0,86,0.00,,,0.00,0.0,meteohub,2013-03-02 12:48:00,
2013-03-02 04:53:00,52.5,48.7,30.12,ENE,61,2.0,4.0,87,0.00,,,0.00,0.0,meteohub,2013-03-02 12:53:00,
2013-03-02 04:58:00,52.5,48.7,30.12,ENE,61,0.0,4.0,87,0.00,,,0.00,0.0,meteohub,2013-03-02 12:58:00,
2013-03-02 05:03:00,52.0,48.2,30.12,ENE,61,0.0,3.0,87,0.00,,,0.00,0.0,meteohub,2013-03-02 13:03:00,
2013-03-02 05:08:00,51.6,48.2,30.12,East,81,0.0,3.0,88,0.00,,,0.00,0.0,meteohub,2013-03-02 13:08:00,
2013-03-02 05:13:00,51.4,48.4,30.12,ENE,57,3.0,3.0,89,0.00,,,0.00,0.0,meteohub,2013-03-02 13:13:00,
2013-03-02 05:18:00,51.6,48.6,30.12,NE,52,3.0,3.0,89,0.00,,,0.00,0.0,meteohub,2013-03-02 13:18:00,
2013-03-02 05:23:00,52.2,48.7,30.11,NE,46,4.0,5.0,88,0.00,,,0.00,0.0,meteohub,2013-03-02 13:23:00,
2013-03-02 05:28:00,52.5,48.7,30.11,NE,51,5.0,5.0,87,0.00,,,0.00,0.0,meteohub,2013-03-02 13:28:00,
2013-03-02 05:33:00,52.9,48.7,30.11,North,5,4.0,6.0,86,0.00,,,0.00,0.0,meteohub,2013-03-02 13:33:00,
2013-03-02 05:38:00,53.2,48.9,30.11,ENE,66,3.0,7.0,85,0.00,,,0.00,0.0,meteohub,2013-03-02 13:38:00,
2013-03-02 05:44:00,53.4,49.1,30.11,NE,44,4.0,7.0,85,0.00,,,0.00,0.0,meteohub,2013-03-02 13:44:00,
2013-03-02 05:49:00,53.6,48.9,30.11,ENE,60,2.0,7.0,84,0.00,,,0.00,0.0,meteohub,2013-03-02 13:49:00,
2013-03-02 05:54:00,53.6,48.9,30.11,NE,40,3.0,6.0,84,0.00,,,0.00,0.0,meteohub,2013-03-02 13:54:00,
2013-03-02 05:59:00,53.6,48.9,30.11,ENE,58,2.0,5.0,84,0.00,,,0.00,0.0,meteohub,2013-03-02 13:59:00,
2013-03-02 06:04:00,53.4,48.7,30.12,NE,53,3.0,6.0,84,0.00,,,0.00,0.0,meteohub,2013-03-02 14:04:00,
2013-03-02 06:09:00,53.2,48.9,30.12,NE,55,3.0,6.0,85,0.00,,,0.00,0.0,meteohub,2013-03-02 14:09:00,
2013-03-02 06:14:00,53.2,48.9,30.12,NE,52,3.0,6.0,85,0.00,,,0.00,0.0,meteohub,2013-03-02 14:14:00,
2013-03-02 06:19:00,53.2,48.9,30.12,NE,51,3.0,6.0,85,0.00,,,0.00,0.0,meteohub,2013-03-02 14:19:00,
2013-03-02 06:24:00,53.2,48.9,30.12,NE,44,0.0,6.0,85,0.00,,,0.00,0.0,meteohub,2013-03-02 14:24:00,
2013-03-02 06:29:00,53.1,48.9,30.12,ENE,63,2.0,6.0,86,0.00,,,0.00,0.0,meteohub,2013-03-02 14:29:00,
2013-03-02 06:34:00,52.9,48.7,30.12,ENE,64,2.0,4.0,86,0.00,,,0.00,0.0,meteohub,2013-03-02 14:34:00,
2013-03-02 06:39:00,53.1,48.9,30.12,NE,36,3.0,4.0,86,0.00,,,0.00,0.0,meteohub,2013-03-02 14:39:00,
2013-03-02 06:44:00,53.2,49.1,30.12,NE,43,0.0,3.0,86,0.00,,,0.00,7.0,meteohub,2013-03-02 14:44:00,
2013-03-02 06:49:00,53.6,49.3,30.12,NNE,22,1.0,3.0,85,0.00,,,0.00,9.0,meteohub,2013-03-02 14:49:00,
2013-03-02 06:54:00,54.0,49.3,30.12,NNE,22,2.0,3.0,84,0.00,,,0.00,16.0,meteohub,2013-03-02 14:54:00,
2013-03-02 06:59:00,54.1,49.1,30.12,NNE,22,0.0,3.0,83,0.00,,,0.00,26.0,meteohub,2013-03-02 14:59:00,
2013-03-02 07:04:00,53.2,48.9,30.12,NW,324,2.0,3.0,85,0.00,,,0.00,37.0,meteohub,2013-03-02 15:04:00,
2013-03-02 07:09:00,53.2,49.1,30.13,NW,321,0.0,2.0,86,0.00,,,0.00,51.0,meteohub,2013-03-02 15:09:00,
2013-03-02 07:14:00,53.2,48.9,30.13,NW,321,0.0,3.0,85,0.00,,,0.00,58.0,meteohub,2013-03-02 15:14:00,
2013-03-02 07:19:00,53.2,49.1,30.13,NW,321,0.0,3.0,86,0.00,,,0.00,67.0,meteohub,2013-03-02 15:19:00,
2013-03-02 07:24:00,53.1,48.9,30.13,NW,321,0.0,3.0,86,0.00,,,0.00,77.0,meteohub,2013-03-02 15:24:00,
2013-03-02 07:30:00,52.9,49.1,30.13,NW,321,0.0,1.0,87,0.00,,,0.00,98.0,meteohub,2013-03-02 15:30:00,
2013-03-02 07:35:00,53.2,49.5,30.13,NW,321,0.0,1.0,87,0.00,,,0.00,123.0,meteohub,2013-03-02 15:35:00,
2013-03-02 07:40:00,53.8,49.6,30.12,NW,321,0.0,1.0,86,0.00,,,0.00,118.0,meteohub,2013-03-02 15:40:00,
2013-03-02 07:45:00,53.6,49.5,30.12,North,0,0.0,0.0,86,0.00,,,0.00,134.0,meteohub,2013-03-02 15:45:00,
2013-03-02 07:50:00,54.0,49.8,30.12,North,0,0.0,1.0,86,0.00,,,0.00,156.0,meteohub,2013-03-02 15:50:00,
2013-03-02 07:55:00,54.5,50.0,30.12,ESE,105,1.0,1.0,85,0.00,,,0.00,149.0,meteohub,2013-03-02 15:55:00,
2013-03-02 08:00:00,54.5,50.0,30.12,ESE,116,1.0,1.0,85,0.00,,,0.00,163.0,meteohub,2013-03-02 16:00:00,
2013-03-02 08:05:00,54.9,50.2,30.13,South,169,1.0,2.0,84,0.00,,,0.00,111.0,meteohub,2013-03-02 16:05:00,
2013-03-02 08:10:00,54.3,49.6,30.13,South,169,0.0,2.0,84,0.00,,,0.00,128.0,meteohub,2013-03-02 16:10:00,
2013-03-02 08:15:00,54.5,49.8,30.13,WSW,243,1.0,2.0,84,0.00,,,0.00,171.0,meteohub,2013-03-02 16:15:00,
2013-03-02 08:20:00,55.0,50.4,30.13,West,273,1.0,3.0,84,0.00,,,0.00,169.0,meteohub,2013-03-02 16:20:00,
2013-03-02 08:25:00,55.8,51.3,30.13,West,271,0.0,3.0,85,0.00,,,0.00,200.0,meteohub,2013-03-02 16:25:00,
2013-03-02 08:30:00,55.8,51.1,30.13,SW,216,0.0,3.0,84,0.00,,,0.00,206.0,meteohub,2013-03-02 16:30:00,
2013-03-02 08:35:00,55.4,50.7,30.13,SW,224,0.0,3.0,84,0.00,,,0.00,225.0,meteohub,2013-03-02 16:35:00,
2013-03-02 08:40:00,55.0,50.4,30.13,WSW,240,2.0,4.0,84,0.00,,,0.00,216.0,meteohub,2013-03-02 16:40:00,
2013-03-02 08:45:00,55.4,50.7,30.13,South,178,0.0,4.0,84,0.00,,,0.00,206.0,meteohub,2013-03-02 16:45:00,
2013-03-02 08:50:00,55.4,50.7,30.12,South,178,1.0,4.0,84,0.00,,,0.00,214.0,meteohub,2013-03-02 16:50:00,
2013-03-02 08:55:00,56.1,50.7,30.12,SE,136,0.0,2.0,82,0.00,,,0.00,234.0,meteohub,2013-03-02 16:55:00,
2013-03-02 09:00:00,56.8,51.1,30.12,SE,138,0.0,3.0,81,0.00,,,0.00,260.0,meteohub,2013-03-02 17:00:00,
2013-03-02 09:05:00,57.4,51.6,30.13,SSE,155,0.0,3.0,81,0.00,,,0.00,357.0,meteohub,2013-03-02 17:05:00,
2013-03-02 09:10:00,57.9,51.4,30.13,SE,130,0.0,3.0,79,0.00,,,0.00,302.0,meteohub,2013-03-02 17:10:00,
2013-03-02 09:15:00,58.6,51.8,30.13,SE,133,0.0,3.0,78,0.00,,,0.00,327.0,meteohub,2013-03-02 17:15:00,
2013-03-02 09:20:00,58.6,51.4,30.12,SSE,152,2.0,4.0,77,0.00,,,0.00,302.0,meteohub,2013-03-02 17:20:00,
2013-03-02 09:25:00,59.0,51.4,30.12,ESE,110,0.0,4.0,76,0.00,,,0.00,339.0,meteohub,2013-03-02 17:25:00,
2013-03-02 09:30:00,59.5,51.3,30.12,ESE,111,0.0,4.0,74,0.00,,,0.00,323.0,meteohub,2013-03-02 17:30:00,
2013-03-02 09:35:00,59.7,51.4,30.12,ESE,115,1.0,3.0,74,0.00,,,0.00,399.0,meteohub,2013-03-02 17:35:00,
2013-03-02 09:40:00,61.3,52.2,30.12,SE,130,1.0,4.0,72,0.00,,,0.00,512.0,meteohub,2013-03-02 17:40:00,
2013-03-02 09:45:00,62.4,51.3,30.12,ESE,111,1.0,4.0,67,0.00,,,0.00,563.0,meteohub,2013-03-02 17:45:00,
2013-03-02 09:50:00,61.9,51.3,30.12,East,101,2.0,5.0,68,0.00,,,0.00,306.0,meteohub,2013-03-02 17:50:00,
2013-03-02 09:55:00,61.5,51.3,30.12,NE,54,1.0,5.0,69,0.00,,,0.00,392.0,meteohub,2013-03-02 17:55:00,
2013-03-02 10:00:00,62.4,52.2,30.12,SE,138,3.0,5.0,69,0.00,,,0.00,512.0,meteohub,2013-03-02 18:00:00,
2013-03-02 10:05:00,63.7,52.2,30.12,ESE,107,1.0,4.0,66,0.00,,,0.00,534.0,meteohub,2013-03-02 18:05:00,
2013-03-02 10:10:00,63.1,51.3,30.12,SSE,147,0.0,4.0,65,0.00,,,0.00,490.0,meteohub,2013-03-02 18:10:00,
2013-03-02 10:15:00,64.0,52.0,30.12,ESE,116,2.0,4.0,65,0.00,,,0.00,510.0,meteohub,2013-03-02 18:15:00,
2013-03-02 10:20:00,63.9,51.8,30.12,SE,132,0.0,3.0,65,0.00,,,0.00,587.0,meteohub,2013-03-02 18:20:00,
2013-03-02 10:25:00,64.9,52.0,30.11,East,99,3.0,5.0,63,0.00,,,0.00,657.0,meteohub,2013-03-02 18:25:00,
2013-03-02 10:30:00,65.1,51.3,30.11,ESE,116,1.0,5.0,61,0.00,,,0.00,454.0,meteohub,2013-03-02 18:30:00,
2013-03-02 10:35:00,64.9,52.5,30.11,South,169,1.0,5.0,64,0.00,,,0.00,615.0,meteohub,2013-03-02 18:35:00,
2013-03-02 10:40:00,65.8,53.2,30.11,South,175,3.0,5.0,64,0.00,,,0.00,666.0,meteohub,2013-03-02 18:40:00,
2013-03-02 10:45:00,66.0,52.2,30.11,SE,136,3.0,5.0,61,0.00,,,0.00,686.0,meteohub,2013-03-02 18:45:00,
2013-03-02 10:50:00,66.7,52.3,30.11,SE,135,3.0,7.0,60,0.00,,,0.00,742.0,meteohub,2013-03-02 18:50:00,
2013-03-02 10:55:00,66.0,51.8,30.10,NE,51,0.0,7.0,60,0.00,,,0.00,601.0,meteohub,2013-03-02 18:55:00,
2013-03-02 11:00:00,66.9,51.6,30.11,SE,132,4.0,5.0,58,0.00,,,0.00,555.0,meteohub,2013-03-02 19:00:00,
2013-03-02 11:05:00,66.7,50.5,30.09,ESE,122,3.0,5.0,56,0.00,,,0.00,578.0,meteohub,2013-03-02 19:05:00,
2013-03-02 11:10:00,68.0,51.8,30.10,SE,126,2.0,6.0,56,0.00,,,0.00,545.0,meteohub,2013-03-02 19:10:00,
2013-03-02 11:15:00,67.3,51.4,30.10,East,95,3.0,6.0,57,0.00,,,0.00,404.0,meteohub,2013-03-02 19:15:00,
2013-03-02 11:20:00,67.3,52.0,30.10,ESE,117,1.0,6.0,58,0.00,,,0.00,408.0,meteohub,2013-03-02 19:20:00,
2013-03-02 11:25:00,67.5,52.2,30.10,ESE,121,2.0,5.0,58,0.00,,,0.00,622.0,meteohub,2013-03-02 19:25:00,
2013-03-02 11:30:00,66.7,51.4,30.10,ENE,59,0.0,5.0,58,0.00,,,0.00,316.0,meteohub,2013-03-02 19:30:00,
2013-03-02 11:35:00,66.6,51.8,30.10,SE,146,1.0,5.0,59,0.00,,,0.00,248.0,meteohub,2013-03-02 19:35:00,
2013-03-02 11:40:00,65.7,51.4,30.10,SE,130,1.0,6.0,60,0.00,,,0.00,276.0,meteohub,2013-03-02 19:40:00,
2013-03-02 11:45:00,65.7,51.4,30.09,ESE,107,2.0,6.0,60,0.00,,,0.00,276.0,meteohub,2013-03-02 19:45:00,
2013-03-02 11:50:00,65.7,51.8,30.09,ESE,118,2.0,6.0,61,0.00,,,0.00,378.0,meteohub,2013-03-02 19:50:00,
2013-03-02 11:55:00,66.6,51.8,30.09,SE,143,4.0,6.0,59,0.00,,,0.00,610.0,meteohub,2013-03-02 19:55:00,
2013-03-02 12:00:00,66.7,51.4,30.09,SE,139,4.0,6.0,58,0.00,,,0.00,638.0,meteohub,2013-03-02 20:00:00,
2013-03-02 12:05:00,67.3,51.4,30.07,ESE,111,5.0,6.0,57,0.00,,,0.00,362.0,meteohub,2013-03-02 20:05:00,
2013-03-02 12:10:00,66.7,51.1,30.07,SE,138,4.0,7.0,57,0.00,,,0.00,415.0,meteohub,2013-03-02 20:10:00,
2013-03-02 12:15:00,66.6,50.9,30.08,SE,134,3.0,7.0,57,0.00,,,0.00,425.0,meteohub,2013-03-02 20:15:00,
2013-03-02 12:20:00,66.0,51.3,30.08,SE,124,3.0,7.0,59,0.00,,,0.00,359.0,meteohub,2013-03-02 20:20:00,
2013-03-02 12:25:00,65.7,50.5,30.08,ESE,114,0.0,5.0,58,0.00,,,0.00,350.0,meteohub,2013-03-02 20:25:00,
2013-03-02 12:30:00,66.0,51.3,30.07,SE,126,0.0,5.0,59,0.00,,,0.00,323.0,meteohub,2013-03-02 20:30:00,
2013-03-02 12:35:00,66.0,50.9,30.07,East,101,0.0,4.0,58,0.00,,,0.00,318.0,meteohub,2013-03-02 20:35:00,
2013-03-02 12:40:00,66.7,51.4,30.06,SSW,198,0.0,4.0,58,0.00,,,0.00,367.0,meteohub,2013-03-02 20:40:00,
2013-03-02 12:45:00,66.9,51.6,30.06,ESE,103,0.0,3.0,58,0.00,,,0.00,466.0,meteohub,2013-03-02 20:45:00,
2013-03-02 12:50:00,67.5,51.3,30.06,South,175,0.0,3.0,56,0.00,,,0.00,399.0,meteohub,2013-03-02 20:50:00,
2013-03-02 12:55:00,67.5,51.6,30.06,SW,227,7.0,7.0,57,0.00,,,0.00,359.0,meteohub,2013-03-02 20:55:00,
2013-03-02 13:01:00,64.9,52.0,30.07,WNW,292,2.0,7.0,63,0.00,,,0.00,352.0,meteohub,2013-03-02 21:01:00,
2013-03-02 13:06:00,63.9,52.3,30.07,West,271,5.0,13.0,66,0.00,,,0.00,380.0,meteohub,2013-03-02 21:06:00,
2013-03-02 13:11:00,62.2,51.1,30.07,WNW,288,6.0,13.0,67,0.00,,,0.00,357.0,meteohub,2013-03-02 21:11:00,
2013-03-02 13:16:00,60.3,50.9,30.06,WSW,243,5.0,13.0,71,0.00,,,0.00,318.0,meteohub,2013-03-02 21:16:00,
2013-03-02 13:21:00,59.2,50.5,30.06,West,280,4.0,13.0,73,0.00,,,0.00,350.0,meteohub,2013-03-02 21:21:00,
2013-03-02 13:26:00,58.5,50.5,30.06,WNW,284,2.0,12.0,75,0.00,,,0.00,362.0,meteohub,2013-03-02 21:26:00,
2013-03-02 13:31:00,58.6,51.1,30.06,SW,234,3.0,11.0,76,0.00,,,0.00,399.0,meteohub,2013-03-02 21:31:00,
2013-03-02 13:36:00,59.0,51.1,30.06,SW,215,4.0,9.0,75,0.00,,,0.00,366.0,meteohub,2013-03-02 21:36:00,
2013-03-02 13:41:00,58.8,50.5,30.05,SW,226,3.0,10.0,74,0.00,,,0.00,350.0,meteohub,2013-03-02 21:41:00,
2013-03-02 13:46:00,58.3,50.7,30.05,WSW,251,5.0,12.0,76,0.00,,,0.00,390.0,meteohub,2013-03-02 21:46:00,
2013-03-02 13:51:00,58.3,50.4,30.05,SW,217,3.0,12.0,75,0.00,,,0.00,360.0,meteohub,2013-03-02 21:51:00,
2013-03-02 13:56:00,58.5,50.5,30.05,West,264,3.0,12.0,75,0.00,,,0.00,385.0,meteohub,2013-03-02 21:56:00,
2013-03-02 14:01:00,57.7,50.2,30.05,WNW,302,4.0,12.0,76,0.00,,,0.00,355.0,meteohub,2013-03-02 22:01:00,
2013-03-02 14:06:00,57.7,50.5,30.05,WNW,290,2.0,12.0,77,0.00,,,0.00,355.0,meteohub,2013-03-02 22:06:00,
2013-03-02 14:11:00,57.4,50.2,30.05,South,189,3.0,12.0,77,0.00,,,0.00,339.0,meteohub,2013-03-02 22:11:00,
2013-03-02 14:16:00,57.0,49.8,30.05,West,271,6.0,13.0,77,0.00,,,0.00,341.0,meteohub,2013-03-02 22:16:00,
2013-03-02 14:21:00,57.0,49.8,30.04,WNW,292,5.0,13.0,77,0.00,,,0.00,541.0,meteohub,2013-03-02 22:21:00,
2013-03-02 14:26:00,57.6,50.0,30.04,West,269,3.0,13.0,76,0.00,,,0.00,281.0,meteohub,2013-03-02 22:26:00,
2013-03-02 14:31:00,58.1,50.2,30.04,SW,230,1.0,13.0,75,0.00,,,0.00,309.0,meteohub,2013-03-02 22:31:00,
2013-03-02 14:36:00,58.3,50.4,30.04,SW,225,5.0,13.0,75,0.00,,,0.00,251.0,meteohub,2013-03-02 22:36:00,
2013-03-02 14:41:00,58.5,50.2,30.03,SSW,203,3.0,8.0,74,0.00,,,0.00,276.0,meteohub,2013-03-02 22:41:00,
2013-03-02 14:46:00,58.5,50.2,30.04,SW,216,2.0,9.0,74,0.00,,,0.00,288.0,meteohub,2013-03-02 22:46:00,
2013-03-02 14:51:00,59.0,50.0,30.03,WSW,241,4.0,9.0,72,0.00,,,0.00,274.0,meteohub,2013-03-02 22:51:00,
2013-03-02 14:56:00,59.2,50.2,30.03,SSW,204,4.0,9.0,72,0.00,,,0.00,218.0,meteohub,2013-03-02 22:56:00,
2013-03-02 15:01:00,58.8,49.8,30.03,SW,229,3.0,9.0,72,0.00,,,0.00,206.0,meteohub,2013-03-02 23:01:00,
2013-03-02 15:06:00,58.6,49.6,30.03,WNW,296,3.0,9.0,72,0.00,,,0.00,178.0,meteohub,2013-03-02 23:06:00,
2013-03-02 15:11:00,58.3,50.0,30.03,NW,313,3.0,10.0,74,0.00,,,0.00,163.0,meteohub,2013-03-02 23:11:00,
2013-03-02 15:16:00,57.9,49.6,30.03,WSW,248,2.0,10.0,74,0.00,,,0.00,169.0,meteohub,2013-03-02 23:16:00,
2013-03-02 15:21:00,57.6,49.3,30.03,WNW,300,6.0,10.0,74,0.00,,,0.00,167.0,meteohub,2013-03-02 23:21:00,
2013-03-02 15:26:00,57.4,49.5,30.03,WNW,288,5.0,11.0,75,0.00,,,0.00,146.0,meteohub,2013-03-02 23:26:00,
2013-03-02 15:31:00,57.2,49.3,30.03,WNW,284,6.0,12.0,75,0.00,,,0.00,111.0,meteohub,2013-03-02 23:31:00,
2013-03-02 15:36:00,57.2,49.6,30.03,WNW,286,0.0,12.0,76,0.00,,,0.00,100.0,meteohub,2013-03-02 23:36:00,
2013-03-02 15:41:00,57.0,49.1,30.02,WNW,302,4.0,12.0,75,0.00,,,0.00,114.0,meteohub,2013-03-02 23:41:00,
2013-03-02 15:46:00,57.0,49.5,30.02,West,261,7.0,11.0,76,0.00,,,0.00,118.0,meteohub,2013-03-02 23:46:00,
2013-03-02 15:51:00,56.8,48.9,30.03,SW,236,5.0,12.0,75,0.00,,,0.00,107.0,meteohub,2013-03-02 23:51:00,
2013-03-02 15:56:00,56.7,49.1,30.02,NW,306,2.0,14.0,76,0.00,,,0.00,105.0,meteohub,2013-03-02 23:56:00,
2013-03-02 16:01:00,56.7,49.1,30.02,SW,221,5.0,14.0,76,0.00,,,0.00,120.0,meteohub,2013-03-03 00:01:00,
2013-03-02 16:06:00,56.7,49.5,30.01,WSW,257,2.0,14.0,77,0.00,,,0.00,137.0,meteohub,2013-03-03 00:06:00,
2013-03-02 16:11:00,56.7,49.1,30.01,West,263,2.0,13.0,76,0.00,,,0.00,120.0,meteohub,2013-03-03 00:11:00,
2013-03-02 16:16:00,56.5,49.3,30.01,SW,223,9.0,13.0,77,0.00,,,0.00,111.0,meteohub,2013-03-03 00:16:00,
2013-03-02 16:21:00,56.1,49.3,30.01,SW,236,6.0,11.0,78,0.00,,,0.00,90.0,meteohub,2013-03-03 00:21:00,
2013-03-02 16:26:00,56.1,49.6,30.02,SW,226,6.0,11.0,79,0.00,,,0.00,79.0,meteohub,2013-03-03 00:26:00,
2013-03-02 16:31:00,55.8,49.3,30.02,WSW,252,1.0,10.0,79,0.00,,,0.00,107.0,meteohub,2013-03-03 00:31:00,
2013-03-02 16:36:00,55.2,49.1,30.01,NW,309,5.0,10.0,80,0.00,,,0.00,98.0,meteohub,2013-03-03 00:36:00,
2013-03-02 16:41:00,54.9,49.5,30.01,WSW,242,5.0,10.0,82,0.00,,,0.00,88.0,meteohub,2013-03-03 00:41:00,
2013-03-02 16:46:00,54.1,49.1,30.02,SW,219,6.0,10.0,83,0.00,,,0.00,81.0,meteohub,2013-03-03 00:46:00,
2013-03-02 16:51:00,53.8,49.1,30.02,WSW,242,6.0,13.0,84,0.00,,,0.00,65.0,meteohub,2013-03-03 00:51:00,
2013-03-02 16:56:00,53.1,48.7,30.02,West,260,5.0,14.0,85,0.00,,,0.00,47.0,meteohub,2013-03-03 00:56:00,
2013-03-02 17:01:00,52.3,48.2,30.02,SW,215,6.0,14.0,86,0.00,,,0.00,35.0,meteohub,2013-03-03 01:01:00,
2013-03-02 17:06:00,52.0,48.2,30.03,WNW,296,5.0,12.0,87,0.00,,,0.00,39.0,meteohub,2013-03-03 01:06:00,
2013-03-02 17:11:00,51.6,48.6,30.03,SSW,208,1.0,17.0,89,0.00,,,0.00,39.0,meteohub,2013-03-03 01:11:00,
2013-03-02 17:16:00,51.4,48.4,30.03,West,273,5.0,17.0,89,0.00,,,0.00,42.0,meteohub,2013-03-03 01:16:00,
2013-03-02 17:21:00,51.6,48.6,30.03,SW,236,4.0,17.0,89,0.00,,,0.00,47.0,meteohub,2013-03-03 01:21:00,
2013-03-02 17:26:00,51.4,48.4,30.03,West,278,0.0,11.0,89,0.00,,,0.00,37.0,meteohub,2013-03-03 01:26:00,
2013-03-02 17:31:00,51.4,48.6,30.03,WSW,240,4.0,12.0,90,0.00,,,0.00,19.0,meteohub,2013-03-03 01:31:00,
2013-03-02 17:36:00,51.3,48.2,30.03,SSW,206,1.0,12.0,89,0.00,,,0.00,14.0,meteohub,2013-03-03 01:36:00,
2013-03-02 17:41:00,51.3,48.4,30.02,WNW,290,12.0,12.0,90,0.00,,,0.00,14.0,meteohub,2013-03-03 01:41:00,
2013-03-02 17:46:00,51.1,48.2,30.03,WSW,250,7.0,13.0,90,0.00,,,0.00,11.0,meteohub,2013-03-03 01:46:00,
2013-03-02 17:51:00,50.9,48.0,30.03,West,264,2.0,14.0,90,0.00,,,0.00,7.0,meteohub,2013-03-03 01:51:00,
2013-03-02 17:56:00,50.7,47.8,30.03,West,281,4.0,14.0,90,0.00,,,0.00,0.0,meteohub,2013-03-03 01:56:00,
2013-03-02 18:01:00,50.7,48.2,30.02,WSW,246,5.0,14.0,91,0.00,,,0.00,0.0,meteohub,2013-03-03 02:01:00,
2013-03-02 18:06:00,50.7,48.2,30.02,WSW,257,3.0,11.0,91,0.00,,,0.00,0.0,meteohub,2013-03-03 02:06:00,
2013-03-02 18:11:00,50.9,48.4,30.02,WSW,258,3.0,11.0,91,0.00,,,0.00,0.0,meteohub,2013-03-03 02:11:00,
2013-03-02 18:16:00,51.1,48.6,30.02,WNW,296,0.0,11.0,91,0.00,,,0.00,0.0,meteohub,2013-03-03 02:16:00,
2013-03-02 18:21:00,51.1,48.2,30.03,WSW,237,4.0,11.0,90,0.00,,,0.00,0.0,meteohub,2013-03-03 02:21:00,
2013-03-02 18:26:00,50.9,48.4,30.03,SW,225,2.0,9.0,91,0.00,,,0.00,0.0,meteohub,2013-03-03 02:26:00,
2013-03-02 18:31:00,51.1,48.6,30.04,WSW,237,10.0,10.0,91,0.00,,,0.00,0.0,meteohub,2013-03-03 02:31:00,
2013-03-02 18:36:00,50.9,48.4,30.04,WSW,238,5.0,10.0,91,0.00,,,0.00,0.0,meteohub,2013-03-03 02:36:00,
2013-03-02 18:41:00,50.7,48.2,30.04,WSW,246,0.0,10.0,91,0.00,,,0.00,0.0,meteohub,2013-03-03 02:41:00,
2013-03-02 18:46:00,50.7,48.2,30.03,WSW,248,0.0,10.0,91,0.00,,,0.00,0.0,meteohub,2013-03-03 02:46:00,
2013-03-02 18:51:00,50.7,48.2,30.03,West,265,3.0,8.0,91,0.00,,,0.00,0.0,meteohub,2013-03-03 02:51:00,
2013-03-02 18:56:00,50.7,48.2,30.03,WNW,283,1.0,10.0,91,0.00,,,0.00,0.0,meteohub,2013-03-03 02:56:00,
2013-03-02 19:01:00,50.7,48.2,30.03,SW,214,0.0,10.0,91,0.00,,,0.00,0.0,meteohub,2013-03-03 03:01:00,
2013-03-02 19:07:00,50.7,48.2,30.04,SW,228,4.0,10.0,91,0.00,,,0.00,0.0,meteohub,2013-03-03 03:07:00,
2013-03-02 19:12:00,50.7,48.2,30.03,NW,314,3.0,10.0,91,0.00,,,0.00,0.0,meteohub,2013-03-03 03:12:00,
2013-03-02 19:17:00,50.5,48.0,30.03,WSW,247,4.0,10.0,91,0.00,,,0.00,0.0,meteohub,2013-03-03 03:17:00,
2013-03-02 19:22:00,50.7,48.2,30.04,West,263,2.0,10.0,91,0.00,,,0.00,0.0,meteohub,2013-03-03 03:22:00,
2013-03-02 19:27:00,50.7,48.2,30.04,WNW,292,5.0,10.0,91,0.00,,,0.00,0.0,meteohub,2013-03-03 03:27:00,
2013-03-02 19:32:00,50.5,48.0,30.03,NW,304,5.0,10.0,91,0.00,,,0.00,0.0,meteohub,2013-03-03 03:32:00,
2013-03-02 19:37:00,50.5,48.0,30.03,West,281,3.0,10.0,91,0.00,,,0.00,0.0,meteohub,2013-03-03 03:37:00,
2013-03-02 19:41:00,50.7,48.2,30.04,West,259,4.0,11.0,91,0.00,,,0.00,0.0,meteohub,2013-03-03 03:41:00,
2013-03-02 19:46:00,50.7,48.2,30.03,West,262,3.0,11.0,91,0.00,,,0.00,0.0,meteohub,2013-03-03 03:46:00,
2013-03-02 19:51:00,50.7,48.2,30.03,WNW,294,7.0,11.0,91,0.00,,,0.00,0.0,meteohub,2013-03-03 03:51:00,
2013-03-02 19:56:00,50.5,48.0,30.03,WSW,255,4.0,11.0,91,0.00,,,0.00,0.0,meteohub,2013-03-03 03:56:00,
2013-03-02 20:01:00,50.5,48.0,30.03,WSW,248,1.0,13.0,91,0.00,,,0.00,0.0,meteohub,2013-03-03 04:01:00,
2013-03-02 20:06:00,50.5,48.0,30.04,SW,226,9.0,13.0,91,0.00,,,0.00,0.0,meteohub,2013-03-03 04:06:00,
2013-03-02 20:11:00,50.5,48.0,30.04,West,266,5.0,13.0,91,0.00,,,0.00,0.0,meteohub,2013-03-03 04:11:00,
2013-03-02 20:16:00,50.4,48.2,30.04,West,278,9.0,12.0,92,0.00,,,0.00,0.0,meteohub,2013-03-03 04:16:00,
2013-03-02 20:21:00,50.4,48.2,30.04,SW,236,6.0,12.0,92,0.00,,,0.00,0.0,meteohub,2013-03-03 04:21:00,
2013-03-02 20:26:00,50.4,48.4,30.04,West,281,1.0,13.0,93,0.00,,,0.00,0.0,meteohub,2013-03-03 04:26:00,
2013-03-02 20:32:00,50.2,48.2,30.04,SSW,211,10.0,13.0,93,0.00,,,0.00,0.0,meteohub,2013-03-03 04:32:00,
2013-03-02 20:37:00,50.2,48.2,30.04,West,263,3.0,14.0,93,0.00,,,0.00,0.0,meteohub,2013-03-03 04:37:00,
2013-03-02 20:42:00,50.0,48.0,30.04,West,267,6.0,14.0,93,0.00,,,0.00,0.0,meteohub,2013-03-03 04:42:00,
2013-03-02 20:47:00,50.0,48.4,30.04,SSW,209,5.0,12.0,94,0.00,,,0.00,0.0,meteohub,2013-03-03 04:47:00,
2013-03-02 20:52:00,49.8,48.2,30.03,WNW,303,2.0,12.0,94,0.00,,,0.00,0.0,meteohub,2013-03-03 04:52:00,
2013-03-02 20:57:00,49.8,48.2,30.04,West,267,5.0,12.0,94,0.00,,,0.00,0.0,meteohub,2013-03-03 04:57:00,
2013-03-02 21:00:00,49.8,48.2,30.03,WNW,299,3.0,12.0,94,0.00,,,0.00,0.0,meteohub,2013-03-03 05:00:00,
2013-03-02 21:02:00,49.8,48.2,30.04,WSW,251,5.0,12.0,94,0.00,,,0.00,0.0,meteohub,2013-03-03 05:02:00,
2013-03-02 21:07:00,49.8,48.2,30.03,WNW,292,5.0,12.0,94,0.00,,,0.00,0.0,meteohub,2013-03-03 05:07:00,
2013-03-02 21:12:00,49.8,48.2,30.04,WSW,245,5.0,12.0,94,0.00,,,0.00,0.0,meteohub,2013-03-03 05:12:00,
2013-03-02 21:17:00,49.8,48.2,30.04,SSW,200,5.0,13.0,94,0.00,,,0.00,0.0,meteohub,2013-03-03 05:17:00,
2013-03-02 21:22:00,49.6,48.0,30.04,WNW,298,5.0,13.0,94,0.00,,,0.00,0.0,meteohub,2013-03-03 05:22:00,
2013-03-02 21:27:00,49.6,48.0,30.04,West,268,4.0,12.0,94,0.00,,,0.00,0.0,meteohub,2013-03-03 05:27:00,
2013-03-02 21:32:00,49.6,48.0,30.04,WSW,242,3.0,12.0,94,0.00,,,0.00,0.0,meteohub,2013-03-03 05:32:00,
2013-03-02 21:37:00,49.5,47.8,30.04,WSW,238,6.0,12.0,94,0.00,,,0.00,0.0,meteohub,2013-03-03 05:37:00,
2013-03-02 21:42:00,49.6,48.2,30.04,WSW,255,10.0,13.0,95,0.00,,,0.00,0.0,meteohub,2013-03-03 05:42:00,
2013-03-02 21:47:00,49.6,48.2,30.04,West,271,4.0,13.0,95,0.00,,,0.00,0.0,meteohub,2013-03-03 05:47:00,
2013-03-02 21:52:00,49.5,48.0,30.04,WSW,252,4.0,13.0,95,0.00,,,0.00,0.0,meteohub,2013-03-03 05:52:00,
2013-03-02 21:57:00,49.5,48.0,30.04,West,276,4.0,13.0,95,0.00,,,0.00,0.0,meteohub,2013-03-03 05:57:00,
2013-03-02 22:02:00,49.5,48.0,30.04,West,272,4.0,12.0,95,0.00,,,0.00,0.0,meteohub,2013-03-03 06:02:00,
2013-03-02 22:07:00,49.5,48.0,30.04,WSW,257,8.0,12.0,95,0.00,,,0.00,0.0,meteohub,2013-03-03 06:07:00,
2013-03-02 22:12:00,49.5,48.0,30.03,NW,309,9.0,12.0,95,0.00,,,0.00,0.0,meteohub,2013-03-03 06:12:00,
2013-03-02 22:17:00,49.5,48.0,30.03,SW,219,4.0,12.0,95,0.00,,,0.00,0.0,meteohub,2013-03-03 06:17:00,
2013-03-02 22:22:00,49.5,48.0,30.03,SW,230,3.0,12.0,95,0.00,,,0.00,0.0,meteohub,2013-03-03 06:22:00,
2013-03-02 22:27:00,49.5,48.0,30.03,West,268,4.0,12.0,95,0.00,,,0.00,0.0,meteohub,2013-03-03 06:27:00,
2013-03-02 22:32:00,49.5,48.0,30.04,West,259,4.0,11.0,95,0.00,,,0.00,0.0,meteohub,2013-03-03 06:32:00,
2013-03-02 22:37:00,49.5,48.0,30.04,SW,236,10.0,14.0,95,0.00,,,0.00,0.0,meteohub,2013-03-03 06:37:00,
2013-03-02 22:42:00,49.5,48.0,30.04,WSW,256,2.0,16.0,95,0.00,,,0.00,0.0,meteohub,2013-03-03 06:42:00,
2013-03-02 22:47:00,49.3,47.8,30.03,SW,219,3.0,16.0,95,0.00,,,0.00,0.0,meteohub,2013-03-03 06:47:00,
2013-03-02 22:52:00,49.3,47.8,30.03,WSW,244,2.0,13.0,95,0.00,,,0.00,0.0,meteohub,2013-03-03 06:52:00,
2013-03-02 22:57:00,49.3,47.8,30.03,WSW,254,9.0,13.0,95,0.00,,,0.00,0.0,meteohub,2013-03-03 06:57:00,
2013-03-02 23:02:00,49.3,47.8,30.03,WNW,298,5.0,11.0,95,0.00,,,0.00,0.0,meteohub,2013-03-03 07:02:00,
2013-03-02 23:07:00,49.3,47.8,30.03,SW,231,7.0,11.0,95,0.00,,,0.00,0.0,meteohub,2013-03-03 07:07:00,
2013-03-02 23:12:00,49.3,47.8,30.03,SW,230,11.0,11.0,95,0.00,,,0.00,0.0,meteohub,2013-03-03 07:12:00,
2013-03-02 23:17:00,49.3,47.8,30.03,WNW,296,3.0,14.0,95,0.00,,,0.00,0.0,meteohub,2013-03-03 07:17:00,
2013-03-02 23:22:00,49.3,47.8,30.03,West,270,5.0,14.0,95,0.00,,,0.00,0.0,meteohub,2013-03-03 07:22:00,
2013-03-02 23:27:00,49.3,47.8,30.04,SW,222,13.0,14.0,95,0.00,,,0.00,0.0,meteohub,2013-03-03 07:27:00,
2013-03-02 23:32:00,49.3,47.8,30.04,WSW,246,11.0,15.0,95,0.00,,,0.00,0.0,meteohub,2013-03-03 07:32:00,
2013-03-02 23:37:00,49.3,47.8,30.04,WSW,245,5.0,15.0,95,0.00,,,0.00,0.0,meteohub,2013-03-03 07:37:00,
2013-03-02 23:42:00,49.3,47.8,30.04,WSW,246,13.0,16.0,95,0.00,,,0.00,0.0,meteohub,2013-03-03 07:42:00,
2013-03-02 23:47:00,49.3,47.8,30.03,WSW,256,4.0,16.0,95,0.00,,,0.00,0.0,meteohub,2013-03-03 07:47:00,
2013-03-02 23:52:00,49.3,47.8,30.04,WSW,254,9.0,16.0,95,0.00,,,0.00,0.0,meteohub,2013-03-03 07:52:00,
2013-03-02 23:57:00,49.3,47.8,30.03,WNW,290,4.0,13.0,95,0.00,,,0.00,0.0,meteohub,2013-03-03 07:57:00,